Location: Street
(51.1247°N, 2.7429°W)
Time: 15:01:10
(UTC+00:00)

Tiros 1 despin weight - Visible Passes

Search period start: 24 November 2020 00:00
Search period end: 04 December 2020 00:00
Orbit: 593 x 642 km, 48.2° (Epoch: 24 November)

Date Brightness Start Highest point End Pass type
(mag) Time Alt. Az. Time Alt. Az. Time Alt. Az.
24 Nov ? 18:16:12 10° W 18:20:40 45° SSW 18:22:53 26° SE visible
24 Nov ? 19:58:21 10° W 19:59:58 16° WSW 19:59:58 16° WSW visible
25 Nov ? 16:51:06 10° W 16:55:44 60° S 17:00:19 10° ESE visible
25 Nov ? 18:32:41 10° W 18:36:53 34° SSW 18:38:54 23° SSE visible
26 Nov ? 17:07:30 10° W 17:12:03 52° SSW 17:16:34 10° ESE visible
26 Nov ? 18:49:20 10° W 18:53:01 23° SSW 18:55:04 17° S visible
27 Nov ? 17:23:56 10° W 17:28:20 40° SSW 17:32:40 10° SE visible
27 Nov ? 19:06:26 10° WSW 19:09:03 15° SW 19:11:25 11° S visible
28 Nov ? 17:40:28 10° W 17:44:31 29° SSW 17:48:31 10° SSE visible
29 Nov ? 17:57:15 10° W 18:00:37 20° SW 18:03:56 10° S visible
30 Nov ? 18:14:47 10° WSW 18:16:35 12° SW 18:18:22 10° SSW visible
01 Dec ? 16:48:17 10° W 16:52:07 25° SSW 16:55:55 10° SSE visible
02 Dec ? 17:05:15 10° WSW 17:08:10 16° SW 17:11:03 10° S visible
